Home   Weather   Dessau-Rosslau   Past weeks

Flag for Germany Past Weather in Dessau-Rosslau, Saxony-Anhalt, Germany — Yesterday and Last 2 Weeks

Now
48 °F

Clear.


Feels Like: 45 °F
Forecast: 41 / 52 °F
Wind: 7 mph from South

Location: Leipzig-Schkeuditz

Current Time: Apr 24, 2017 at 11:02:01 pm

Latest Report: Apr 24, 2017 at 10:20 pm


Visibility: 10 mi

Pressure: 29.77 "Hg

Humidity: 62%

Dew Point: 36 °F

Location of Dessau-RosslauLocation

Past Weather in Dessau-Rosslau — Graph

°F

Dessau-Rosslau Temperature Yesterday

Maximum temperature yesterday: 50 °F (at 4:20 pm)
Minimum temperature yesterday: 37 °F (at 10:20 pm)
Average temperature yesterday: 43 °F

High & Low Weather Summary for the Past Weeks

 TemperatureHumidityPressure
High70 °F (Apr 10, 12:50 pm)100% (Apr 12, 10:50 pm)30.60 "Hg (Apr 12, 10:50 pm)
Low28 °F (Apr 20, 3:50 am)38% (Apr 24, 2:50 pm)29.77 "Hg (Apr 24, 9:20 pm)
Average45 °F72%30.10 "Hg
* Reported Apr 9 9:20 pm — Apr 24 9:50 pm, Dessau-Rosslau, Weather by CustomWeather, © 2017

Note: Actual official high and low records may vary slightly from our data, if they occured in-between our weather recording intervals... More about our weather records

Advertising

Dessau-Rosslau Weather History for the Previous 24 Hours

Scroll right to see more
 ConditionsComfort  
Time TempWeatherWind HumidityBarometerVisibility
9:50 pm
Mon, Apr 24
50 °FClear.6 mph58%29.77 "Hg10 mi
9:20 pm48 °FClear.5 mph58%29.77 "Hg10 mi
8:50 pm50 °FClear.5 mph54%29.80 "Hg10 mi
8:20 pm52 °FSunny.6 mph50%29.80 "Hg10 mi
7:50 pm52 °FSunny.8 mph54%29.80 "Hg10 mi
7:20 pm54 °FSunny.12 mph47%29.80 "Hg10 mi
6:50 pm57 °FSunny.16 mph39%29.80 "Hg10 mi
6:20 pm59 °FPassing clouds.15 mph39%29.83 "HgN/A
5:50 pm59 °FSunny.15 mph39%29.83 "Hg10 mi
5:20 pm59 °FSunny.18 mph39%29.83 "Hg10 mi
4:50 pm59 °FSunny.17 mph39%29.86 "Hg10 mi
4:20 pm57 °FPassing clouds.16 mph41%29.86 "HgN/A
3:50 pm57 °FPassing clouds.18 mph41%29.89 "HgN/A
3:20 pm57 °FPassing clouds.18 mph41%29.89 "HgN/A
2:50 pm55 °FPassing clouds.16 mph38%29.92 "HgN/A
2:20 pm55 °FSunny.17 mph41%29.92 "Hg10 mi
1:50 pm55 °FPassing clouds.16 mph44%29.95 "HgN/A
1:20 pm55 °FPassing clouds.15 mph44%29.95 "HgN/A
12:50 pm54 °FSunny.17 mph41%29.98 "Hg10 mi
12:20 pm52 °FPartly sunny.17 mph47%30.01 "HgN/A
11:50 am52 °FPartly sunny.16 mph47%30.01 "HgN/A
11:20 am50 °FPartly sunny.16 mph50%30.04 "HgN/A
10:50 am48 °FScattered clouds.14 mph50%30.04 "HgN/A
10:20 am48 °FSunny.14 mph54%30.04 "Hg10 mi
9:50 am46 °FSunny.10 mph57%30.07 "Hg10 mi
9:20 am45 °FSunny.10 mph66%30.07 "Hg10 mi
8:50 am43 °FSunny.10 mph71%30.07 "Hg10 mi
8:20 am39 °FSunny.7 mph75%30.09 "Hg10 mi
7:50 am37 °FSunny.9 mph81%30.09 "Hg10 mi
7:20 am37 °FSunny.7 mph81%30.09 "Hg10 mi
6:50 am34 °FSunny.7 mph87%30.09 "Hg10 mi
6:20 am34 °FSunny.7 mph87%30.09 "Hg10 mi
5:50 am30 °FClear.6 mph93%30.09 "Hg10 mi
5:20 am32 °FClear.6 mph87%30.12 "Hg10 mi
4:50 am32 °FClear.6 mph93%30.12 "Hg10 mi
4:20 am34 °FPassing clouds.6 mph87%30.12 "HgN/A
3:50 am36 °FClear.8 mph81%30.12 "Hg10 mi
3:20 am36 °FClear.9 mph81%30.15 "Hg10 mi
2:50 am36 °FClear.8 mph81%30.15 "Hg10 mi
2:20 am34 °FPassing clouds.7 mph81%30.15 "HgN/A
1:50 am36 °FPassing clouds.7 mph81%30.15 "HgN/A
1:20 am34 °FClear.9 mph87%30.18 "Hg10 mi
12:50 am39 °FClear.9 mph75%30.15 "Hg10 mi
12:20 am37 °FClear.8 mph81%30.18 "Hg10 mi
11:50 pm
Sun, Apr 23
41 °FPassing clouds.10 mph70%30.18 "HgN/A
11:20 pm41 °FPartly cloudy.9 mph76%30.15 "HgN/A
Weather by CustomWeather, © 2017

See weather overviewHow to use our weather pages